RH
43 42 43 37 39 38 30 28 23 21 15 19 23 27 34 44 46 60 59 55 52 35 10 9 11 13 19 21 22 21 19 21 25 29 28 25 18 16 17 19 21 23 22
40 41 42 38 37 34 30 27 21 22 19 19 27 34 44 53 58 58 54 50 43 11 9 12 14 17 19 19 19 18 18 20 23 23 20 18 16 16 22 23 21 24 24
42 41 42 39 36 35 34 25 21 23 27 15 24 38 44 48 52 55 45 31 15 10 14 15 16 18 19 19 16 16 17 18 19 17 16 16 16 16 16 16 17 23 26
44 41 40 40 41 37 28 23 22 24 21 14 17 26 33 37 40 36 24 17 11 14 15 16 17 18 18 18 17 18 19 20 20 21 21 22 22 23 23 22 21 20 22
46 43 40 43 45 34 27 23 23 27 20 14 11 11 14 18 20 18 16 12 14 15 15 15 16 17 20 20 22 22 24 24 24 25 26 26 27 28 28 27 26 25 23
48 45 43 49 40 34 24 24 25 28 17 14 12 11 10 10 11 12 14 15 15 15 14 15 18 21 23 23 24 25 25 26 26 27 28 30 30 31 32 31 30 27 25
50 48 44 46 39 30 24 24 32 26 18 16 14 14 13 14 14 15 16 16 15 15 17 19 21 23 24 25 25 26 26 27 28 30 31 32 32 32 32 31 31 29 27
49 47 46 49 38 30 25 26 32 29 23 18 16 15 16 16 15 15 16 17 18 20 21 22 23 24 24 25 26 27 28 28 30 32 32 32 32 32 31 30 29 29 29
51 50 50 49 39 30 27 29 32 32 26 22 19 16 16 17 17 18 20 21 23 24 24 25 25 25 25 26 26 27 28 29 31 32 32 34 33 32 32 32 31 30 30
60 58 57 53 44 34 29 30 33 36 32 26 24 21 20 21 21 22 22 23 24 24 25 26 26 26 26 26 26 26 26 28 31 32 33 34 32 32 33 36 35 34 33
74 66 63 59 50 43 36 33 37 38 38 37 35 29 27 26 25 25 25 24 24 25 25 26 26 26 26 25 25 25 26 27 30 33 34 35 33 34 34 36 37 36 36
81 72 68 63 56 50 44 40 41 41 41 40 38 35 35 34 32 31 29 28 27 26 26 25 25 25 25 24 24 24 26 28 31 34 35 35 36 37 37 37 38 37 38
82 80 81 73 62 58 52 46 46 45 42 41 40 36 35 37 37 36 35 33 31 28 27 25 24 24 24 25 25 25 27 28 31 33 34 34 36 38 39 41 40 39 39
67 78 84 82 74 65 60 54 51 50 48 46 44 40 35 35 38 40 40 37 34 31 29 26 26 25 25 25 27 28 29 30 31 32 33 34 39 43 44 45 44 42 40
68 62 71 79 86 76 67 63 58 52 54 53 50 46 41 40 39 38 39 39 39 36 34 29 28 28 27 28 30 31 30 31 32 31 32 40 45 47 49 51 50 48 44
71 71 71 77 91 87 76 69 65 61 55 52 51 48 46 44 42 40 38 39 42 42 38 36 33 32 33 33 34 34 34 34 35 38 43 45 45 49 51 53 52 48 44
71 78 73 72 80 81 88 81 72 69 67 62 58 56 54 50 47 46 44 40 38 43 42 41 40 39 38 38 39 40 40 41 44 45 45 45 47 46 46 50 50 47 47
68 71 73 79 79 75 79 89 83 79 73 68 64 63 62 59 56 52 49 46 40 41 45 46 47 47 46 45 45 45 45 44 46 48 47 45 44 44 44 51 52 47 48
71 69 70 72 85 82 79 78 77 79 82 78 70 69 67 63 61 61 57 51 46 42 47 48 52 51 51 52 53 51 50 50 49 47 44 42 42 43 45 46 51 47 53
76 73 81 76 84 84 80 79 72 77 77 82 76 72 74 68 64 62 63 59 52 46 49 50 52 50 54 55 56 56 54 51 49 44 40 40 38 38 43 46 47 50 52
80 88 86 90 90 84 82 81 73 75 80 79 75 72 67 67 65 59 64 65 63 57 54 53 51 56 58 56 58 59 57 54 48 44 40 38 37 39 42 45 46 48 54
71 76 80 84 76 79 74 69 69 79 85 84 78 75 72 73 74 72 67 69 73 75 71 71 69 65 63 62 59 60 58 55 53 49 47 44 42 42 46 49 49 52 57
57 64 69 70 70 76 82 89 87 89 90 87 86 82 79 78 74 82 82 78 78 78 78 78 75 73 70 70 70 65 62 58 54 53 50 48 46 48 48 48 49 51 56
50 51 54 66 71 73 76 82 84 86 87 90 91 90 89 85 85 90 89 88 90 91 84 73 66 63 62 66 66 65 59 57 54 48 45 44 44 43 45 47 50 51 55
52 51 52 60 65 69 72 75 77 81 87 87 93 87 91 95 95 95 92 88 86 85 81 77 75 72 72 70 66 61 56 52 49 51 47 42 42 43 45 48 51 52 55
44 49 52 54 57 58 59 70 74 77 81 82 85 83 82 89 89 89 84 83 83 83 82 78 76 68 62 60 57 56 54 53 51 50 50 49 48 47 48 48 50 50 47